This is the latest recevied weather packets stored in our database for station/object CRYC. If no packets are shown the sender has not sent any weather packets the latest 10 day(s).
| Time | Temp. | Humidity | Pressure | Rain* | Wind** | Luminosity | Snow |
|---|---|---|---|---|---|---|---|
| 1777619343 | 8.33° C | - | - | 0 mm | 0.45 m/s, 316° | - | - |
| 1777618733 | 8.33° C | - | - | 0 mm | 0.45 m/s, 340° | - | - |
| 1777617523 | 8.33° C | - | - | 0 mm | 2.24 m/s, 336° | - | - |
| 1777616920 | 8.33° C | - | - | 0 mm | 0 m/s | - | - |
| 1777616316 | 8.33° C | - | - | 0 mm | 0 m/s | - | - |
| 1777615710 | 8.89° C | - | - | 0 mm | 1.79 m/s, 343° | - | - |
| 1777615104 | 8.89° C | - | - | 0 mm | 0 m/s | - | - |
| 1777614501 | 8.89° C | - | - | 0 mm | 0.89 m/s, 333° | - | - |
| 1777613895 | 9.44° C | - | - | 0 mm | 0.89 m/s, 354° | - | - |
| 1777613289 | 9.44° C | - | - | 0 mm | 0 m/s | - | - |
| 1777612687 | 10° C | - | - | 0 mm | 1.34 m/s, 359° | - | - |
| 1777612083 | 9.44° C | - | - | 0 mm | 1.34 m/s, 307° | - | - |
| 1777611474 | 10° C | - | - | 0 mm | 0.89 m/s, 18° | - | - |
| 1777610868 | 10° C | - | - | 0 mm | 2.24 m/s, 312° | - | - |
| 1777610263 | 10° C | - | - | 0 mm | 1.34 m/s, 330° | - | - |
| 1777609660 | 10° C | - | - | 0 mm | 1.79 m/s, 323° | - | - |
| 1777609061 | 10° C | - | - | 0 mm | 0.89 m/s, 4° | - | - |
| 1777608450 | 10° C | - | - | 0 mm | 1.34 m/s, 301° | - | - |
| 1777607845 | 10° C | - | - | 0 mm | 2.24 m/s, 330° | - | - |
| 1777607241 | 10° C | - | - | 0 mm | 0.45 m/s, 325° | - | - |
| 1777606636 | 10.56° C | - | - | 0 mm | 1.34 m/s, 283° | - | - |
| 1777606031 | 10.56° C | - | - | 0 mm | 0.45 m/s, 6° | - | - |
| 1777605428 | 10.56° C | - | - | 0 mm | 0.89 m/s, 281° | - | - |
| 1777604821 | 11.11° C | - | - | 0 mm | 1.79 m/s, 6° | - | - |
| 1777604218 | 10.56° C | - | - | 0 mm | 1.79 m/s, 329° | - | - |
* Rain latest hour (hover to see other rain measurements)
** Current wind speed in m/s (hover to see current wind gust speed)